Tracking 27402 objects as of 2-Jun-2023
HD Live streaming from Space Station
objects crossing your sky now

CZ-6A DEB

Track CZ-6A DEB now!
10-day predictions


NORAD ID: 54352
Int'l Code: 2022-151CX
Perigee: 610.6 km
Apogee: 885.1 km
Inclination: 99.1 °
Period: 99.6 minutes
Semi major axis: 7118 km
RCS: Unknown
Launch date: November 11, 2022
Source: People's Republic of China (PRC)
Launch site: Taiyaun Space Center, China (TSC)

Note: This is SATELLITE DEBRIS
Your satellite tracking list
Your tracking list is empty




NASA's NSSDC Master Catalog

Two Line Element Set (TLE):
1 54352U 22151CX  23152.79806322  .00011397  00000-0  25835-2 0  9996
2 54352  99.0883 177.5560 0192847  76.8998 285.3636 14.45398926 28540
Source of the keplerian elements: AFSPC